1531789201.02,23127,16.81,73508.0,4.97,4.27,4.27,0,*72
1531789202.24,23128,16.81,73508.3,4.97,4.31,4.27,0,*7A
1531789203.45,23129,16.81,73508.3,4.95,4.27,4.31,0,*79
1531789204.69,23130,16.81,73508.3,4.95,4.31,4.31,0,*76
1531789205.9,23131,16.81,73506.3,4.97,4.37,4.37,0,*75
1531789207.14,23132,16.81,73510.5,4.97,4.31,4.41,0,*71
1531789208.37,23133,16.81,73508.3,4.95,4.31,4.31,0,*75
1531789209.61,23134,16.81,73506.3,4.95,4.31,4.31,0,*72
1531789210.85,23135,16.81,73506.5,4.95,4.31,4.31,0,*73
1531789212.09,23136,16.81,73504.5,4.95,4.31,4.31,0,*70
1531789213.3,23137,16.81,73506.8,4.93,4.27,4.37,0,*76
1531789214.49,23138,16.81,73504.3,4.95,4.37,4.37,0,*7E
1531789215.71,23139,16.81,73494.3,4.95,4.31,4.37,0,*79
1531789216.9,23140,16.81,73490.0,4.95,4.37,4.37,0,*71
1531789218.11,23141,16.81,73488.3,4.95,4.31,4.37,0,*76
1531789219.33,23142,16.81,73492.3,4.93,4.23,4.33,0,*74
1531789220.54,23143,16.81,73494.3,4.95,4.31,4.41,0,*75
1531789221.73,23144,16.81,73492.0,4.95,4.37,4.37,0,*75
1531789222.92,23145,16.81,73494.8,4.95,4.41,4.37,0,*75
1531789224.11,23146,16.81,73498.8,4.95,4.37,4.37,0,*77
1531789225.29,23147,16.81,73496.5,4.95,4.41,4.41,0,*76
1531789226.48,23148,16.81,73498.8,4.95,4.41,4.41,0,*79
1531789227.66,23149,16.81,73498.0,4.95,4.49,4.41,0,*70
1531789228.86,23150,16.81,73502.3,4.97,4.41,4.41,0,*72
1531789230.07,23151,16.81,73488.5,4.97,4.37,4.41,0,*72
1531789231.27,23152,16.81,73490.5,4.97,4.41,4.49,0,*78
1531789232.47,23153,16.81,73490.3,4.97,4.49,4.49,0,*71
1531789233.65,23154,16.81,73490.0,4.99,4.53,4.53,0,*78
1531789234.84,23155,16.81,73492.0,4.97,4.49,4.49,0,*77
1531789236.03,23156,16.81,73490.0,4.99,4.53,4.57,0,*7E
1531789237.23,23157,16.81,73494.8,4.97,4.41,4.49,0,*7D
1531789238.43,23158,16.81,73494.0,4.97,4.41,4.49,0,*72
1531789239.63,23159,16.81,73494.5,4.97,4.41,4.41,0,*7B
1531789240.89,23160,16.81,73498.3,4.97,4.31,4.31,0,*71
1531789242.12,23161,16.81,73504.3,4.97,4.27,4.31,0,*77
1531789243.32,23162,16.81,73504.0,4.97,4.41,4.41,0,*73
1531789244.53,23163,16.81,73500.3,4.97,4.41,4.37,0,*73
1531789245.71,23164,16.81,73506.0,4.99,4.45,4.41,0,*7F
1531789246.92,23165,16.81,73504.0,4.97,4.37,4.37,0,*74
1531789248.13,23166,16.81,73502.3,4.97,4.37,4.37,0,*77
1531789249.34,23167,16.81,73502.5,4.97,4.41,4.41,0,*76
1531789250.53,23168,16.81,73508.0,4.97,4.49,4.49,0,*79
1531789251.73,23169,16.81,73504.8,4.97,4.41,4.49,0,*70
1531789252.92,23170,16.81,73500.3,4.99,4.41,4.37,0,*7F
1531789254.1,23171,16.81,73506.3,4.99,4.45,4.41,0,*7B
1531789255.28,23172,16.81,73506.5,4.99,4.41,4.41,0,*7C
1531789256.49,23173,16.81,73500.3,4.97,4.37,4.37,0,*73
1531789257.68,23174,16.81,73504.3,4.99,4.41,4.45,0,*7E
1531789258.88,23175,16.81,73504.8,4.97,4.41,4.41,0,*75
1531789260.09,23176,16.81,73502.3,4.97,4.37,4.41,0,*77
1531789261.3,23177,16.81,73496.5,4.97,4.41,4.41,0,*77
1531789262.48,23178,16.81,73498.0,4.99,4.41,4.41,0,*76
1531789263.66,23179,16.81,73500.3,4.99,4.45,4.53,0,*70
1531789264.84,23180,16.81,73504.3,4.99,4.53,4.53,0,*71
1531789266.04,23181,16.81,73508.5,4.97,4.49,4.49,0,*7E
1531789267.24,23182,16.81,73508.5,4.97,4.41,4.37,0,*7C
1531789268.42,23183,16.81,73508.0,4.99,4.45,4.45,0,*72
1531789269.63,23184,16.81,73506.8,4.97,4.37,4.41,0,*7A
1531789270.81,23185,16.81,73506.5,4.99,4.45,4.45,0,*74
1531789271.99,23186,16.81,73508.5,4.99,4.45,4.45,0,*77
1531789273.18,23187,16.81,73506.3,4.99,4.45,4.41,0,*72
1531789274.39,23188,16.81,73506.5,4.97,4.37,4.37,0,*77
1531789275.6,23189,16.81,73508.0,4.97,4.37,4.41,0,*77
1531789276.81,23190,16.81,73508.0,4.97,4.37,4.41,0,*7F
1531789277.99,23191,16.81,73506.0,4.99,4.45,4.45,0,*71
1531789279.17,23192,16.81,73510.3,4.99,4.53,4.45,0,*75
1531789280.38,23193,16.81,73506.8,4.97,4.41,4.41,0,*7D
1531789281.56,23194,16.81,73508.0,4.99,4.45,4.45,0,*74
1531789282.74,23195,16.81,73506.8,4.99,4.41,4.41,0,*75
1531789283.98,23196,16.81,73508.5,4.97,4.31,4.37,0,*7E
1531789285.21,23197,16.81,73506.8,4.97,4.31,4.41,0,*7E
1531789286.39,23198,16.81,73506.3,4.99,4.45,4.41,0,*7C
1531789287.58,23199,16.81,73506.0,4.99,4.41,4.41,0,*79
1531789288.76,23200,16.81,73506.0,4.99,4.45,4.45,0,*7A
1531789289.94,23201,16.81,73504.3,4.99,4.53,4.45,0,*7C
1531789291.12,23202,16.81,73510.3,4.99,4.45,4.45,0,*78
1531789292.3,23203,16.81,73510.0,4.99,4.41,4.53,0,*7A
1531789293.5,23204,16.81,73502.3,5.01,4.45,4.45,0,*7E
1531789294.71,23205,16.81,73502.3,5.01,4.37,4.37,0,*7F
1531789295.92,23206,16.81,73506.8,5.01,4.37,4.33,0,*78
1531789297.13,23207,16.81,73504.8,5.01,4.33,4.33,0,*7D
1531789298.32,23208,16.81,73500.5,5.03,4.37,4.33,0,*74
1531789299.55,23209,16.81,73498.3,4.99,4.31,4.31,0,*73
1531789300.76,23210,16.81,73498.5,4.99,4.33,4.31,0,*79
1531789302.0,23211,16.81,73498.3,4.97,4.27,4.31,0,*73
1531789303.2,23212,16.81,73496.0,5.01,4.33,4.33,0,*79
1531789304.41,23213,16.88,73498.8,5.01,4.33,4.33,0,*78
1531789305.63,23214,16.81,73492.0,4.97,4.31,4.27,0,*76
1531789306.87,23215,16.81,73492.8,4.97,4.31,4.37,0,*76
1531789308.05,23216,16.81,73488.5,4.99,4.41,4.41,0,*7D
1531789309.24,23217,16.81,73492.3,4.99,4.45,4.41,0,*78
1531789310.42,23218,16.81,73488.5,4.99,4.41,4.45,0,*77
1531789311.62,23219,16.81,73490.8,4.97,4.37,4.49,0,*75
1531789312.8,23220,16.81,73492.0,4.99,4.53,4.53,0,*78
1531789313.99,23221,16.81,73494.3,4.99,4.57,4.53,0,*7D
1531789315.18,23222,16.81,73496.5,5.01,4.49,4.57,0,*75
1531789316.39,23223,16.81,73498.5,5.01,4.49,4.57,0,*74
1531789317.58,23224,16.81,73498.0,5.01,4.57,4.49,0,*73
1531789318.75,23225,16.81,73500.3,5.03,4.49,4.49,0,*7F
1531789319.93,23226,16.81,73502.8,4.99,4.41,4.45,0,*7A
1531789321.14,23227,16.81,73498.0,5.01,4.37,4.45,0,*7A
1531789322.34,23228,16.81,73492.5,5.01,4.33,4.45,0,*71
1531789323.55,23229,16.81,73496.0,5.01,4.33,4.45,0,*70
1531789324.75,23230,16.81,73494.0,5.01,4.37,4.45,0,*7C
1531789325.96,23231,16.81,73496.0,5.01,4.37,4.45,0,*7D
1531789327.17,23232,16.81,73498.0,5.01,4.37,4.37,0,*7B
1531789328.38,23233,16.81,73498.0,5.01,4.37,4.37,0,*7A
1531789329.59,23234,16.81,73492.3,5.01,4.37,4.49,0,*74
1531789330.78,23235,16.81,73496.3,5.01,4.45,4.49,0,*70
1531789331.96,23236,16.81,73494.5,4.99,4.41,4.45,0,*7B
1531789333.15,23237,16.81,73494.8,4.99,4.41,4.41,0,*7E
1531789334.33,23238,16.81,73496.5,4.99,4.41,4.41,0,*71
1531789335.52,23239,16.81,73492.8,4.99,4.45,4.41,0,*74
1531789336.69,23240,16.81,73496.3,5.03,4.45,4.49,0,*70
1531789337.89,23241,16.81,73494.3,5.01,4.45,4.45,0,*7F
1531789339.07,23242,16.81,73492.5,4.99,4.41,4.45,0,*78
1531789340.28,23243,16.81,73492.3,4.99,4.33,4.31,0,*7F
1531789341.49,23244,16.81,73498.3,5.01,4.33,4.37,0,*7E
1531789342.7,23245,16.81,73492.8,5.01,4.37,4.37,0,*7B
1531789343.91,23246,16.81,73496.8,5.01,4.37,4.37,0,*78
1531789345.12,23247,16.81,73500.3,5.01,4.37,4.37,0,*79
1531789346.33,23248,16.81,73496.3,5.01,4.37,4.37,0,*76
1531789347.54,23249,16.81,73498.5,5.01,4.45,4.37,0,*72
1531789348.74,23250,16.81,73502.0,5.01,4.49,4.57,0,*70
1531789349.93,23251,16.81,73504.8,5.01,4.49,4.49,0,*7E
1531789351.13,23252,16.81,73502.5,5.01,4.49,4.45,0,*71
1531789352.33,23253,16.81,73506.3,5.01,4.45,4.57,0,*7F
1531789353.53,23254,16.81,73506.0,5.01,4.57,4.57,0,*7B
1531789354.72,23255,16.81,73506.8,4.99,4.53,4.53,0,*7A
1531789355.92,23256,16.81,73500.3,5.01,4.49,4.57,0,*76
1531789357.12,23257,16.81,73502.5,5.01,4.45,4.45,0,*78
1531789358.31,23258,16.81,73500.3,5.01,4.49,4.49,0,*77
1531789359.49,23259,16.81,73500.3,5.03,4.45,4.45,0,*74
1531789360.68,23260,16.81,73502.8,5.01,4.49,4.49,0,*7C
1531789361.86,23261,16.81,73500.0,5.03,4.49,4.57,0,*70
1531789363.06,23262,16.81,73502.5,5.01,4.49,4.57,0,*71
1531789364.25,23263,16.81,73504.3,5.01,4.49,4.49,0,*7F
1531789365.45,23264,16.81,73500.5,5.01,4.49,4.57,0,*77
1531789366.65,23265,16.81,73500.0,5.01,4.49,4.45,0,*75
1531789367.85,23266,16.81,73500.0,5.01,4.49,4.37,0,*73
1531789369.04,23267,16.81,73502.3,5.03,4.37,4.37,0,*79
1531789370.23,23268,16.81,73500.8,5.01,4.57,4.49,0,*7B
1531789371.43,23269,16.81,73500.8,5.01,4.45,4.49,0,*79
1531789372.63,23270,16.81,73500.8,5.01,4.57,4.49,0,*72
1531789373.8,23271,16.81,73500.0,5.03,4.49,4.49,0,*7E
1531789374.97,23272,16.81,73500.3,5.03,4.49,4.49,0,*7D
1531789376.16,23273,16.81,73502.0,5.01,4.49,4.49,0,*7E
1531789377.36,23274,16.81,73502.5,5.01,4.57,4.57,0,*79
1531789378.6,23275,16.81,73500.8,5.01,4.59,4.57,0,*76
1531789379.78,23276,16.81,73500.3,5.03,4.57,4.57,0,*79
1531789381.01,23277,16.81,73502.0,5.03,4.59,4.59,0,*78
1531789382.21,23278,16.81,73502.0,5.03,4.57,4.59,0,*79
1531789383.39,23279,16.81,73500.8,5.03,4.57,4.57,0,*76
1531789384.57,23280,16.81,73502.3,5.03,4.57,4.57,0,*70
1531789385.77,23281,16.81,73500.5,5.01,4.57,4.57,0,*73
1531789386.99,23282,16.81,73500.8,5.01,4.57,4.59,0,*7E
1531789388.19,23283,16.81,73500.0,5.03,4.57,4.59,0,*7D
1531789389.37,23284,16.81,73504.3,5.03,4.57,4.49,0,*7B
1531789390.57,23285,16.81,73506.3,5.01,4.57,4.57,0,*77
1531789391.75,23286,16.81,73504.0,5.03,4.57,4.57,0,*76
1531789392.93,23287,16.81,73504.3,5.03,4.57,4.57,0,*77
1531789394.13,23288,16.81,73502.5,5.01,4.57,4.57,0,*7A
1531789395.31,23289,16.81,73506.5,5.03,4.57,4.45,0,*7A
1531789396.49,23290,16.81,73510.3,5.07,4.49,4.53,0,*7E
1531789397.67,23291,16.81,73506.8,5.07,4.53,4.53,0,*74
1531789398.85,23292,16.81,73506.3,5.07,4.53,4.53,0,*77
1531789400.02,23293,16.81,73508.0,5.07,4.49,4.53,0,*7D
1531789401.22,23294,16.81,73508.3,5.01,4.49,4.57,0,*78
1531789402.4,23295,16.81,73510.5,5.03,4.45,4.45,0,*74
1531789403.57,23296,16.81,73506.3,5.03,4.45,4.45,0,*77
1531789404.75,23297,16.81,73506.3,5.03,4.45,4.45,0,*76
1531789405.92,23298,16.81,73510.5,5.03,4.49,4.49,0,*79
1531789407.1,23299,16.81,73506.0,5.07,4.49,4.53,0,*77
1531789408.28,23300,16.81,73504.0,5.03,4.37,4.37,0,*79
1531789409.47,23301,16.81,73498.5,5.07,4.37,4.37,0,*7C
1531789410.65,23302,16.81,73496.5,5.03,4.33,4.33,0,*7B
1531789411.84,23303,16.81,73500.8,5.03,4.33,4.33,0,*7A
1531789413.02,23304,16.81,73500.8,5.03,4.37,4.33,0,*79
1531789414.21,23305,16.81,73496.3,5.03,4.33,4.33,0,*7C
1531789415.39,23306,16.81,73498.0,5.03,4.33,4.33,0,*7F
1531789416.6,23307,16.81,73498.8,5.03,4.31,4.33,0,*7C
1531789417.84,23308,16.81,73500.0,5.03,4.31,4.31,0,*71
1531789419.05,23309,16.81,73500.8,5.03,4.31,4.33,0,*72
1531789420.23,23310,16.81,73506.0,5.07,4.27,4.37,0,*7D
1531789421.47,23311,16.81,73496.0,5.03,4.31,4.31,0,*79
1531789422.68,23312,16.81,73500.5,5.03,4.31,4.33,0,*78
1531789423.86,23313,16.81,73502.3,5.03,4.33,4.33,0,*7B
1531789425.07,23314,16.81,73502.3,5.01,4.33,4.33,0,*7E
1531789426.27,23315,16.81,73504.5,5.01,4.33,4.33,0,*7F
1531789427.48,23316,16.81,73502.5,5.01,4.33,4.33,0,*7C
1531789428.69,23317,16.81,73504.5,5.01,4.33,4.33,0,*7D
1531789429.9,23318,16.81,73506.8,5.01,4.37,4.33,0,*76
1531789431.1,23319,16.81,73504.5,5.01,4.33,4.33,0,*73
1531789432.31,23320,16.81,73502.3,5.01,4.33,4.33,0,*79
1531789433.52,23321,16.81,73500.5,5.01,4.33,4.33,0,*78
1531789434.7,23322,16.81,73488.8,5.03,4.37,4.37,0,*79
1531789435.91,23323,16.88,73494.8,5.01,4.37,4.33,0,*7E
1531789437.12,23324,16.81,73492.0,5.01,4.37,4.45,0,*78
1531789438.3,23325,16.81,73492.0,5.03,4.37,4.45,0,*7B
1531789439.47,23326,16.81,73490.0,5.03,4.49,4.49,0,*7D
1531789440.67,23327,16.81,73490.3,5.01,4.45,4.45,0,*7E
1531789441.88,23328,16.81,73494.3,5.01,4.45,4.45,0,*71
1531789443.06,23329,16.81,73496.0,5.03,4.33,4.37,0,*76
1531789444.27,23330,16.81,73492.0,5.01,4.37,4.45,0,*7D
1531789445.47,23331,16.81,73498.3,5.01,4.37,4.45,0,*7C
1531789446.66,23332,16.81,73488.8,5.03,4.33,4.33,0,*78
1531789447.86,23333,16.81,73500.0,5.01,4.33,4.33,0,*7B
1531789449.07,23334,16.81,73500.0,5.01,4.37,4.45,0,*79
1531789450.25,23335,16.81,73504.5,5.03,4.37,4.49,0,*76
1531789451.45,23336,16.81,73506.3,5.01,4.49,4.37,0,*77
1531789452.65,23337,16.81,73498.0,5.01,4.49,4.45,0,*73
1531789453.82,23338,16.81,73498.3,5.03,4.49,4.49,0,*72
1531789455.02,23339,16.81,73506.8,5.01,4.37,4.45,0,*74
1531789456.21,23340,16.81,73508.3,5.03,4.45,4.57,0,*7E
1531789457.38,23341,16.81,73512.5,5.03,4.49,4.49,0,*7C
1531789458.55,23342,16.81,73506.5,5.03,4.49,4.49,0,*7F
1531789459.73,23343,16.81,73500.8,5.07,4.53,4.53,0,*7A
1531789460.9,23344,16.81,73506.0,5.03,4.49,4.49,0,*79
1531789462.07,23345,16.81,73504.8,5.03,4.49,4.45,0,*74
1531789463.24,23346,16.81,73502.3,5.03,4.49,4.49,0,*7B
1531789464.43,23347,16.81,73502.0,5.01,4.49,4.49,0,*78
1531789465.6,23348,16.81,73504.0,5.03,4.49,4.49,0,*75
1531789466.8,23349,16.81,73502.5,5.01,4.45,4.49,0,*7A
1531789467.97,23350,16.81,73504.3,5.03,4.45,4.49,0,*70
1531789469.15,23351,16.81,73504.5,5.03,4.45,4.49,0,*71
1531789470.32,23352,16.81,73508.3,5.07,4.49,4.49,0,*7A
1531789471.49,23353,16.81,73510.0,5.03,4.49,4.49,0,*7F
1531789472.67,23354,16.81,73506.0,5.03,4.45,4.45,0,*78
1531789473.83,23355,16.81,73506.3,5.03,4.49,4.49,0,*79
1531789475.07,23356,16.81,73500.3,5.07,4.59,4.59,0,*7E
1531789476.29,23357,16.81,73498.0,5.07,4.63,4.59,0,*76
1531789477.52,23358,16.81,73502.8,5.07,4.63,4.59,0,*79
1531789478.7,23359,16.81,73496.5,5.03,4.57,4.57,0,*75
1531789479.88,23360,16.81,73496.0,5.07,4.53,4.53,0,*7B
1531789481.05,23361,16.81,73490.0,5.07,4.49,4.53,0,*71
1531789482.26,23362,16.81,73494.3,5.07,4.63,4.53,0,*7A
1531789483.49,23363,16.81,73494.5,5.07,4.63,4.63,0,*78
1531789484.67,23364,16.81,73490.3,5.07,4.53,4.53,0,*7F
1531789485.85,23365,16.81,73490.0,5.07,4.53,4.53,0,*7E
1531789487.05,23366,16.81,73490.0,5.07,4.59,4.53,0,*77
1531789488.26,23367,16.81,73494.3,5.07,4.53,4.59,0,*76
1531789489.47,23368,16.81,73494.0,5.03,4.59,4.57,0,*79
1531789490.65,23369,16.81,73494.3,5.03,4.57,4.57,0,*76
1531789491.82,23370,16.81,73492.0,5.03,4.49,4.57,0,*71
1531789493.0,23371,16.81,73494.8,5.03,4.49,4.57,0,*70
1531789494.21,23372,16.81,73496.5,5.07,4.53,4.63,0,*7B
1531789495.41,23373,16.81,73494.5,5.07,4.53,4.59,0,*73
1531789496.67,23374,16.81,73492.8,5.09,4.59,4.63,0,*79
1531789497.92,23375,16.81,73494.3,5.09,4.63,4.63,0,*71
1531789499.15,23376,16.81,73498.8,5.07,4.63,4.63,0,*7C
1531789500.38,23377,16.81,73492.3,5.07,4.59,4.59,0,*7D
1531789501.58,23378,16.81,73496.0,5.07,4.49,4.59,0,*73
1531789502.75,23379,16.81,73494.3,5.07,4.49,4.49,0,*73
1531789503.92,23380,16.81,73492.8,5.07,4.49,4.53,0,*7E
1531789505.1,23381,16.81,73492.3,5.07,4.53,4.53,0,*74
1531789506.31,23382,16.81,73492.5,5.09,4.53,4.53,0,*79
1531789507.49,23383,16.81,73492.3,5.07,4.53,4.53,0,*76
1531789508.69,23384,16.81,73498.5,5.09,4.53,4.49,0,*74
1531789509.86,23385,16.81,73492.8,5.07,4.49,4.49,0,*70
1531789511.05,23386,16.81,73492.5,5.09,4.49,4.53,0,*76
1531789512.24,23387,16.81,73494.0,5.07,4.53,4.53,0,*72
1531789513.41,23388,16.81,73492.3,5.07,4.49,4.49,0,*7D
1531789514.58,23389,16.81,73488.3,5.07,4.49,4.41,0,*74
1531789515.76,23390,16.81,73494.3,5.07,4.41,4.37,0,*75
1531789516.95,23391,16.81,73490.5,5.07,4.41,4.37,0,*74
1531789518.13,23392,16.81,73494.3,5.07,4.37,4.37,0,*76
1531789519.32,23393,16.81,73498.8,5.07,4.37,4.37,0,*77
1531789520.51,23394,16.81,73494.5,5.07,4.37,4.33,0,*74
1531789521.69,23395,16.81,73496.0,5.07,4.37,4.33,0,*75
1531789522.88,23396,16.81,73498.3,5.07,4.37,4.41,0,*73
1531789524.07,23397,16.81,73498.5,5.07,4.37,4.37,0,*73
1531789525.25,23398,16.81,73500.0,5.07,4.41,4.37,0,*7D
1531789526.43,23399,16.81,73500.8,5.03,4.45,4.45,0,*79
1531789527.6,23400,16.81,73500.8,5.03,4.45,4.45,0,*7E
1531789528.77,23401,16.81,73500.8,5.07,4.49,4.49,0,*7B
1531789529.95,23402,16.81,73502.0,5.07,4.41,4.49,0,*70
1531789531.12,23403,16.81,73496.8,5.07,4.49,4.41,0,*71
1531789532.3,23404,16.81,73498.8,5.07,4.49,4.41,0,*76
1531789533.48,23405,16.81,73502.3,5.07,4.53,4.49,0,*74
1531789534.66,23406,16.81,73502.0,5.07,4.37,4.41,0,*7D
1531789535.84,23407,16.81,73500.8,5.07,4.41,4.37,0,*7C
1531789537.02,23408,16.81,73500.8,5.07,4.41,4.49,0,*7A
1531789538.19,23409,16.81,73502.3,5.07,4.49,4.41,0,*7B
1531789539.38,23410,16.81,73506.0,5.03,4.45,4.37,0,*7A
1531789540.56,23411,16.81,73508.0,5.03,4.45,4.37,0,*7B
1531789541.74,23412,16.81,73508.5,5.03,4.37,4.45,0,*78
1531789542.93,23413,16.81,73504.3,5.03,4.37,4.37,0,*7C
1531789544.12,23414,16.81,73504.8,5.03,4.37,4.33,0,*7F
1531789545.3,23415,16.81,73500.5,5.03,4.33,4.33,0,*7A
1531789546.48,23416,16.81,73506.5,5.03,4.33,4.37,0,*7D
1531789547.67,23417,16.81,73506.3,5.03,4.37,4.37,0,*78
1531789548.86,23418,16.81,73508.3,5.03,4.37,4.37,0,*77
1531789550.05,23419,16.81,73508.0,5.03,4.37,4.37,0,*76
1531789551.24,23420,16.81,73508.3,5.03,4.37,4.37,0,*7C
1531789552.42,23421,16.81,73504.5,5.03,4.37,4.37,0,*7D
1531789553.61,23422,16.81,73508.8,5.03,4.33,4.37,0,*7A
1531789554.78,23423,16.81,73510.8,5.03,4.33,4.49,0,*72
1531789555.96,23424,16.81,73510.0,5.07,4.41,4.49,0,*74
1531789557.13,23425,16.81,73508.5,5.07,4.41,4.49,0,*75
1531789558.34,23426,16.81,73510.8,5.01,4.37,4.45,0,*7D
1531789559.51,23427,16.81,73506.5,5.07,4.49,4.49,0,*7F
1531789560.68,23428,16.81,73510.0,5.03,4.49,4.49,0,*74
1531789561.86,23429,16.81,73512.5,5.07,4.41,4.41,0,*71
1531789563.03,23430,16.81,73510.3,5.07,4.49,4.49,0,*79
1531789564.2,23431,16.81,73508.5,5.03,4.49,4.49,0,*7C
1531789565.37,23432,16.81,73510.3,5.03,4.45,4.49,0,*73
1531789566.54,23433,16.81,73510.8,5.07,4.49,4.49,0,*7A
1531789567.72,23434,16.81,73512.3,5.07,4.53,4.53,0,*7D
1531789568.92,23435,16.81,73506.5,5.09,4.49,4.53,0,*79
1531789570.1,23436,16.81,73512.5,5.07,4.49,4.53,0,*74
1531789571.29,23437,16.81,73510.3,5.09,4.49,4.53,0,*7B
1531789572.46,23438,16.81,73514.8,5.07,4.49,4.49,0,*71
1531789573.64,23439,16.81,73510.0,5.07,4.49,4.53,0,*7B
1531789574.81,23440,16.81,73514.0,5.07,4.49,4.41,0,*76
1531789575.99,23441,16.81,73508.8,5.07,4.41,4.53,0,*7C
1531789577.19,23442,16.81,73510.8,5.09,4.53,4.49,0,*79
1531789578.37,23443,16.81,73512.3,5.07,4.49,4.53,0,*76
1531789579.54,23444,16.81,73510.8,5.07,4.41,4.49,0,*72
1531789580.72,23445,16.81,73512.8,5.07,4.53,4.53,0,*7B
1531789581.9,23446,16.81,73514.8,5.07,4.53,4.49,0,*73
1531789583.07,23447,16.81,73510.3,5.07,4.49,4.41,0,*71
1531789584.25,23448,16.81,73512.5,5.07,4.49,4.41,0,*7E
1531789585.43,23449,16.81,73516.0,5.07,4.53,4.53,0,*77
1531789586.63,23450,16.81,73516.8,5.09,4.53,4.49,0,*7A
1531789587.8,23451,16.81,73514.0,5.03,4.45,4.49,0,*76
1531789589.0,23452,16.81,73518.0,5.09,4.41,4.49,0,*7B
1531789590.17,23453,16.81,73516.5,5.07,4.41,4.49,0,*74
1531789591.37,23454,16.81,73518.0,5.09,4.41,4.49,0,*7D
1531789592.55,23455,16.81,73516.8,5.07,4.41,4.41,0,*7A
1531789593.73,23456,16.81,73512.3,5.07,4.37,4.49,0,*70
1531789594.91,23457,16.81,73516.0,5.07,4.41,4.49,0,*70
1531789596.09,23458,16.81,73512.8,5.07,4.53,4.53,0,*77
1531789597.27,23459,16.81,73516.3,5.07,4.53,4.53,0,*76
1531789598.47,23460,16.81,73516.5,5.07,4.53,4.59,0,*76
1531789599.64,23461,16.81,73512.8,5.07,4.49,4.49,0,*7D
1531789600.82,23462,16.81,73514.3,5.07,4.41,4.41,0,*7E
1531789602.03,23463,16.81,73516.5,5.09,4.41,4.41,0,*71
1531789603.21,23464,16.81,73514.8,5.07,4.37,4.41,0,*79
1531789604.4,23465,16.81,73510.0,5.07,4.37,4.41,0,*78
1531789605.57,23466,16.81,73508.3,5.07,4.41,4.49,0,*72
1531789606.75,23467,16.81,73508.5,5.07,4.41,4.49,0,*73
1531789607.93,23468,16.81,73506.3,5.07,4.41,4.41,0,*74
1531789609.1,23469,16.81,73508.0,5.07,4.49,4.41,0,*7D
1531789610.28,23470,16.81,73506.0,5.07,4.53,4.49,0,*76
1531789611.48,23471,16.81,73504.3,5.09,4.49,4.49,0,*72
1531789612.65,23472,16.81,73500.3,5.07,4.41,4.49,0,*77
1531789613.82,23473,16.81,73502.5,5.07,4.41,4.49,0,*76
1531789615.0,23474,16.81,73496.3,5.07,4.41,4.37,0,*78
1531789616.17,23475,16.81,73492.0,5.07,4.49,4.49,0,*78
1531789617.35,23476,16.81,73492.5,5.07,4.41,4.49,0,*73
1531789618.53,23477,16.81,73490.0,5.07,4.41,4.41,0,*7A
1531789619.7,23478,16.81,73490.5,5.07,4.49,4.41,0,*7D
1531789620.88,23479,16.81,73488.0,5.07,4.49,4.37,0,*7D
1531789622.07,23480,16.81,73480.0,5.07,4.37,4.37,0,*72
1531789623.26,23481,16.81,73480.0,5.07,4.37,4.37,0,*73
1531789624.44,23482,16.81,73484.3,5.07,4.37,4.37,0,*70
1531789625.63,23483,16.81,73482.8,5.03,4.33,4.33,0,*75
1531789626.81,23484,16.81,73480.3,5.07,4.37,4.41,0,*77
1531789628.0,23485,16.81,73478.8,5.07,4.37,4.41,0,*76
1531789629.18,23486,16.81,73480.8,5.07,4.41,4.37,0,*75
1531789630.37,23487,16.81,73478.0,5.07,4.37,4.41,0,*74
1531789631.55,23488,16.81,73478.8,5.07,4.49,4.37,0,*73
1531789632.73,23489,16.81,73476.3,5.07,4.37,4.37,0,*7B
1531789633.92,23490,16.81,73482.8,5.03,4.37,4.37,0,*77
1531789635.11,23491,16.81,73476.5,5.03,4.33,4.37,0,*72
1531789636.29,23492,16.81,73480.0,5.03,4.37,4.37,0,*75
1531789637.47,23493,16.81,73486.0,5.07,4.37,4.49,0,*79
1531789638.65,23494,16.81,73486.8,5.07,4.41,4.37,0,*76
1531789639.84,23495,16.81,73484.0,5.03,4.33,4.33,0,*72
1531789641.02,23496,16.81,73490.5,5.03,4.33,4.37,0,*75
1531789642.21,23497,16.81,73496.5,5.03,4.33,4.33,0,*70
1531789643.39,23498,16.81,73496.0,5.03,4.33,4.33,0,*7F
1531789644.58,23499,16.81,73498.3,5.07,4.37,4.37,0,*7A
1531789645.76,23500,16.81,73500.3,5.03,4.33,4.37,0,*7B
1531789646.95,23501,16.81,73498.8,5.03,4.33,4.37,0,*7A
1531789648.13,23502,16.81,73502.5,5.03,4.37,4.37,0,*7D
1531789649.32,23503,16.81,73502.3,5.03,4.37,4.33,0,*78
1531789650.53,23504,16.81,73504.3,5.01,4.33,4.37,0,*7D
1531789651.71,23505,16.81,73506.5,5.07,4.41,4.41,0,*7E
1531789652.9,23506,16.81,73504.5,5.03,4.37,4.33,0,*7D
1531789654.1,23507,16.81,73506.5,5.01,4.33,4.37,0,*7E
1531789655.31,23508,16.81,73506.5,5.01,4.37,4.33,0,*71
1531789656.5,23509,16.81,73504.8,5.03,4.33,4.37,0,*72
1531789657.68,23510,16.81,73506.3,5.03,4.33,4.33,0,*7E
1531789658.86,23511,16.81,73504.5,5.03,4.33,4.33,0,*7F
1531789660.05,23512,16.81,73510.0,5.03,4.33,4.33,0,*7C
1531789661.26,23513,16.81,73504.8,5.01,4.37,4.33,0,*7B
1531789662.47,23514,16.81,73510.3,5.01,4.37,4.33,0,*7C
1531789663.65,23515,16.81,73510.5,5.07,4.41,4.37,0,*7E
1531789664.84,23516,16.81,73510.5,5.03,4.37,4.33,0,*7C
1531789666.05,23517,16.81,73510.5,5.01,4.37,4.33,0,*7F
1531789667.23,23518,16.81,73510.0,5.03,4.37,4.45,0,*73
1531789668.44,23519,16.81,73514.3,5.01,4.37,4.33,0,*71
1531789669.63,23520,16.81,73508.8,5.03,4.37,4.37,0,*7D
1531789670.82,23521,16.81,73514.3,5.03,4.37,4.37,0,*7C
1531789672.0,23522,16.81,73518.0,5.03,4.37,4.37,0,*7F
1531789673.18,23523,16.81,73512.3,5.03,4.45,4.45,0,*7E
1531789674.36,23524,16.81,73514.3,5.03,4.37,4.49,0,*70
1531789675.57,23525,16.81,73514.5,5.01,4.37,4.37,0,*7A
1531789676.75,23526,16.81,73512.0,5.03,4.45,4.45,0,*7B
1531789677.96,23527,16.81,73516.0,5.01,4.37,4.45,0,*7D
1531789679.14,23528,16.81,73518.3,5.03,4.37,4.45,0,*70
1531789680.34,23529,16.81,73516.3,5.01,4.49,4.45,0,*7A
1531789681.51,23530,16.81,73516.8,5.03,4.45,4.49,0,*70
1531789682.69,23531,16.81,73516.3,5.03,4.37,4.45,0,*78
1531789683.9,23532,16.81,73516.3,5.01,4.37,4.37,0,*7C
1531789685.09,23533,16.81,73516.8,5.03,4.37,4.37,0,*7F
1531789686.29,23534,16.81,73516.8,5.01,4.45,4.45,0,*7A
1531789687.5,23535,16.81,73518.3,5.01,4.37,4.45,0,*7E
1531789688.73,23536,16.81,73520.8,5.01,4.31,4.33,0,*7A
1531789689.97,23537,16.81,73520.8,5.03,4.31,4.31,0,*7B
1531789691.2,23538,16.81,73522.5,5.03,4.31,4.31,0,*74
1531789692.41,23539,16.81,73524.0,5.01,4.33,4.37,0,*73
1531789693.62,23540,16.81,73522.8,5.01,4.37,4.37,0,*79
1531789694.82,23541,16.81,73524.0,5.01,4.45,4.49,0,*74
1531789695.99,23542,16.81,73526.0,5.03,4.49,4.49,0,*79
1531789697.16,23543,16.81,73520.0,5.03,4.49,4.49,0,*78
1531789698.36,23544,16.81,73520.3,5.01,4.37,4.45,0,*78
1531789699.55,23545,16.81,73520.0,5.03,4.37,4.37,0,*7E
1531789700.72,23546,16.81,73524.3,5.07,4.49,4.49,0,*79
1531789701.9,23547,16.81,73524.8,5.03,4.45,4.49,0,*70
1531789703.09,23548,16.81,73522.5,5.01,4.49,4.45,0,*7D
1531789704.3,23549,16.81,73524.5,5.01,4.37,4.45,0,*75
1531789705.49,23550,16.81,73526.0,5.03,4.37,4.37,0,*7A
1531789706.69,23551,16.81,73526.0,5.01,4.37,4.45,0,*7C
1531789707.9,23552,16.81,73526.8,5.01,4.37,4.45,0,*7F
1531789709.09,23553,16.81,73528.3,5.03,4.37,4.37,0,*79
1531789710.3,23554,16.81,73524.8,5.01,4.37,4.37,0,*7C
1531789711.51,23555,16.81,73524.3,5.01,4.45,4.37,0,*78
1531789712.72,23556,16.81,73524.3,5.01,4.37,4.37,0,*7E
1531789713.92,23557,16.81,73524.0,5.01,4.45,4.37,0,*7A
1531789715.1,23558,16.81,73524.3,5.03,4.45,4.37,0,*77
1531789716.28,23559,16.81,73526.5,5.07,4.41,4.41,0,*77
1531789717.49,23560,16.81,73528.5,5.01,4.37,4.45,0,*7E
1531789718.68,23561,16.81,73524.0,5.03,4.37,4.37,0,*78
1531789719.88,23562,16.81,73524.5,5.01,4.33,4.45,0,*78
1531789721.09,23563,16.81,73524.3,5.01,4.37,4.45,0,*7D